Weather Roundup
Issued by NWS

Home | Current Version | Previous Version | Text Only | Print | Product List | Glossary On
Versions: 1 2 3 4 5 6 7 8 9 10 11 12 13 14 15 16 17 18 19 20 21 22 23 24 25 26 27 28 29 30 31 32 33 34 35 36 37 38 39 40 41 42 43 44 45 46 47 48 49 50
000
NZUS93 KARX 271059
HRRWXR

CURRENT HOURLY OBSERVATIONS ACROSS
MUCH OF THE UPPER MISSISSIPPI VALLEY
NATIONAL WEATHER SERVICE LA CROSSE WI
600 AM CDT SAT AUG 27 2016


...SOUTHEAST MINNESOTA...


CITY           SKY/WX    TMP DP  RH WIND       PRES   REMARKS
ROCHESTER      CLOUDY    60  59  96 E7        30.07S
ROCHESTER/MAYO CLOUDY    60  60 100 E6        30.07R
WINONA         MOCLDY    61  57  88 SE7       30.07S
AUSTIN         CLOUDY    61  57  88 E3        30.04S
ALBERT LEA     RAIN      61  59  94 CALM      30.05R
DODGE CENTER   CLOUDY    59  57  94 E6        30.06S
PRESTON        CLOUDY    59  56  91 E7        30.07F
OWATONNA       CLOUDY    61  57  88 E5        30.04F
FARIBAULT      CLOUDY    63  59  88 E3        30.05S
$$

...ELSEWHERE IN MINNESOTA...


CITY           SKY/WX    TMP DP  RH WIND       PRES   REMARKS
MINNEAPOLIS    CLOUDY    64  59  83 E9        30.05F
INTNL FALLS    CLOUDY    53  51  93 SE3       30.05S
DULUTH         CLOUDY    58  54  86 CALM      30.09F
RED WING       MOCLDY    63  57  82 E5        30.05R
REDWOOD FALLS  RAIN      60  58  92 NE3       30.03F FOG
MANKATO        MOCLDY    63  57  82 E5        30.04R
WORTHINGTON    CLOUDY    60  58  92 E6        30.02S
FAIRMONT       RAIN      60  59  96 SE3       30.03S FOG
$$

...SOUTHWEST WISCONSIN...


CITY           SKY/WX    TMP DP  RH WIND       PRES   REMARKS
LA CROSSE      CLOUDY    64  60  87 CALM      30.07R
PRAIRIE DU CHI LGT RAIN  62  61  96 E6        30.04S
BOSCOBEL       LGT RAIN  64  62  93 E6        30.06F
LONE ROCK      RAIN      63  61  93 NE3       30.09R
PLATTEVILLE    CLOUDY    63  63 100 E9        30.06F
FORT MC COY    LGT RAIN  60  59  97 E5        30.09S
MAUSTON-NEW LI CLOUDY    61  60  97 CALM      30.10S
VIROQUA        CLOUDY    60  60 100 E8        30.07F
WIS DELLS      NOT AVBL
$$

...ELSEWHERE IN WISCONSIN...


CITY           SKY/WX    TMP DP  RH WIND       PRES   REMARKS
MILWAUKEE      CLOUDY    65  62  90 NE9       30.08F
MADISON        HVY RAIN  61  60  97 NE10      30.08F FOG
GREEN BAY      LGT RAIN  62  62 100 NE6       30.13S
EAU CLAIRE     NOT AVBL
BLACK RVR FLS  FAIR      60  60 100 NE3       30.08F
MEDFORD        CLOUDY    57  57 100 CALM      30.12S
WAUSAU         CLOUDY    59  57  93 E5        30.12F
WIS RAPIDS     CLOUDY    59  58  96 E7        30.13S
MARSHFIELD     CLOUDY    59  56  89 E5        30.11F
RICE LAKE      LGT RAIN  59  55  86 E5        30.11R
$$

...NORTHEAST IOWA...


CITY           SKY/WX    TMP DP  RH WIND       PRES   REMARKS
WATERLOO       LGT RAIN  62  60  93 CALM      30.01R
DUBUQUE        FOG       63  63 100 NE10      30.04S VSB 1/2
DECORAH        RAIN      61  61 100 E6        30.04F
MASON CITY     HVY RAIN  60  59  96 E5        30.05S FOG
CHARLES CITY   CLOUDY    61  61 100 E12       30.04S
OELWEIN        CLOUDY    63  61  94 E10       30.03S
$$

...ELSEWHERE IN IOWA...


CITY           SKY/WX    TMP DP  RH WIND       PRES   REMARKS
DES MOINES     CLOUDY    64  62  93 NE5       29.99S
IOWA CITY      CLOUDY    68  66  93 CALM      30.01R
FORT DODGE     CLOUDY    61  57  88 CALM      30.03F
MARSHALLTOWN   CLOUDY    63  63 100 NE3       30.01R
CEDAR RAPIDS   CLOUDY    65  65 100 E6        29.99S FOG
$$

...NORTHERN ILLINOIS...


CITY           SKY/WX    TMP DP  RH WIND       PRES   REMARKS
CHICAGO-OHARE  LGT RAIN  69  66  90 N3        30.08R
CHICAGO-MIDWAY TSTM      71  68  90 S8        30.08R FOG
MOLINE         CLOUDY    70  68  93 CALM      30.00R
ROCKFORD       LGT RAIN  66  63  90 E9        30.06S
PEORIA         LGT RAIN  71  71 100 SE6       30.06R
$$

NOTE: "FAIR" INDICATES FEW OR NO CLOUDS BELOW 12,000 FEET WITH NO
SIGNIFICANT WEATHER AND/OR OBSTRUCTIONS TO VISIBILITY. WIND
SPEEDS ARE IN MILES-PER-HOUR.




USA.gov is the U.S. government's official web portal to all federal, state and local government web resources and services.